Regional Weather Roundup
Issued by NWS Grand Forks, ND

Home | Current Version | Previous Version | Graphics & Text | Print | Product List | Glossary On
Versions: 1 2 3 4 5 6 7 8 9 10 11 12 13 14 15 16 17 18 19 20 21 22 23 24 25 26 27 28 29 30 31 32 33 34 35 36 37 38 39 40 41 42 43 44 45 46 47 48 49 50
000
ASUS43 KFGF 292331
RWRFGF
PRAIRIE TO PINES  WEATHER ROUNDUP
NATIONAL WEATHER SERVICE EASTERN NORTH DAKOTA/GRAND FORKS ND
600 PM CDT MON JUN 29 2015

 **SATELLITE DATA USED TO AUGMENT SKY COVER AT AUTOMATED STATIONS**
 *****  WEATHER ACROSS EASTERN NORTH DAKOTA  *****

CITY           SKY/WX    TMP DP  RH WIND       PRES   REMARKS
GRAND FORKS    CLOUDY    74  62  66 N10       29.87R
GRAND FRKS AFB MOSUNNY   74  65  74 N10       29.89R
GRAND FRKS NWS   N/A     73 N/A N/A N12         N/A
DEVILS LAKE    MOSUNNY   75  59  57 NE7       29.93R
FARGO          SUNNY     76  63  64 NW13      29.86S
WAHPETON ARPT  CLEAR     73  61  64 NW8       29.86S
$$

 ***** WEATHER ACROSS CENTRAL AND WESTERN NORTH DAKOTA  *****

CITY           SKY/WX    TMP DP  RH WIND       PRES   REMARKS
BISMARCK       SUNNY     91  56  30 N6        29.92F
MINOT          SUNNY     88  56  33 VRB5      29.89F
JAMESTOWN      MOSUNNY   79  64  60 N6        29.91S
MINOT AFB      SUNNY     92  54  27 NW6       29.88F HX  90
GARRISON         N/A     90  56  31 CALM      29.91F
WILLISTON      SUNNY     96  59  29 NE15      29.91S HX  95
DICKINSON      SUNNY     92  60  34 W6        29.93F HX  91
HETTINGER      SUNNY     88  63  43 SW6       29.98F
$$

 *****  OTHER AIRPORT OBSERVATIONS IN OUR AREA  *****

CITY           SKY/WX    TMP DP  RH WIND       PRES   REMARKS
WALHALLA       FAIR      73  66  78 MISG      29.92S
GRAFTON AIRPOR FAIR      73  63  68 N13       29.90S
VALLEY CITY AR FAIR      75  64  69 N6        29.91S
CANDO          FAIR      73  61  64 NE5       29.94S
CAVALIER APRT  FAIR      73  63  68 N8        29.91S
GWINNER        NOT AVBL
ROLLA            N/A     72  59  64 E8        29.97S
 ***** THE ABOVE OBSERVATIONS ARE NON NWS ARE NOT QUALITY
       CONTROLLED AND MAY MIS-REPORT RAIN FOR SNOW...
$$

  *****  WEATHER ACROSS NORTHERN MINNESOTA  *****

CITY           SKY/WX    TMP DP  RH WIND       PRES   REMARKS
FLAG ISLAND    SUNNY     73  55  53 N9        29.86S
WARROAD        SUNNY     72  63  73 NE9       29.88R
ROSEAU         MOSUNNY   75  64  69 NE7       29.87R
HALLOCK        SUNNY     73  59  60 N13G18    29.88S
THF RVR FALLS  SUNNY     75  59  57 NW16      29.87R
BAUDETTE       SUNNY     72  58  61 N12       29.86R
WASKISH        SUNNY     73  61  64 N9G16     29.84S
CROOKSTON      SUNNY     75  63  64 N13       29.87S
$$
  *****  WEATHER ACROSS CENTRAL AND WEST MINNESOTA  *****

CITY           SKY/WX    TMP DP  RH WIND       PRES   REMARKS
FOSSTON        SUNNY     75  57  53 NW10      29.86S
BEMIDJI        SUNNY     76  55  48 N9        29.84R
PARK RAPIDS    SUNNY     80  58  46 NW16      29.82F
ELBOW LAKE     FAIR      73  65  76 NW10G16   29.85S
WADENA         SUNNY     75  63  64 NW10      29.83S
DETROIT LAKES  SUNNY     75  63  64 NW12      29.88R
MOORHEAD       SUNNY     73  64  73 NW9       29.87R
FERGUS FALLS   SUNNY     73  63  68 NW10      29.85R
MORRIS MN      SUNNY     75  64  69 NW12      29.84F
STAPLES        SUNNY     77  63  61 N8        29.81S
$$
  *****  WEATHER ELSEWHERE ACROSS MINNESOTA  *****

CITY           SKY/WX    TMP DP  RH WIND       PRES   REMARKS
DULUTH         PTSUNNY   75  60  59 N8        29.78S
INTRNTL FALLS  MOSUNNY   71  55  56 N10       29.85R
ELY            PTSUNNY   70  57  64 N7        29.81R
CLOQUET        SUNNY     75  57  53 N6        29.78F
WHEATON        SUNNY     73  64  73 NW7       29.87S
BRAINERD       SUNNY     81  57  43 NW17      29.80R
HIBBING        MOSUNNY   75  58  55 N12       29.80R
ALEXANDRIA     SUNNY     76  65  68 NW13      29.85S
SAINT CLOUD    SUNNY     80  64  58 NW10      29.79R
MINNEAPOLIS    PTSUNNY   80  64  58 SW9       29.77F
$$

  *****  WEATHER ACROSS SOUTH DAKOTA  *****

CITY           SKY/WX    TMP DP  RH WIND       PRES   REMARKS
SIOUX FALLS    SUNNY     82  59  45 NW7       29.91S HAZE
BROOKINGS      SUNNY     81  63  54 NW7       29.91F
WATERTOWN      SUNNY     81  60  48 NW10      29.90F
HURON          SUNNY     86  63  45 N7        29.89F
SISSETON         N/A     81  63  54 N12       29.86R
ABERDEEN       MOSUNNY   89  62  40 N10       29.88F
MITCHELL       SUNNY     87  60  40 CALM      29.91F
PIERRE         SUNNY     89  61  38 NW9       29.93S
MOBRIDGE       MOSUNNY   93  55  27 NW8       29.91F HX  91
RAPID CITY     SUNNY     89  58  34 E6        30.05S
$$

  *****  SOME WEATHER IN NEARBY STATES *****

CITY           SKY/WX    TMP DP  RH WIND       PRES   REMARKS
GLASGOW MT     MOSUNNY   94  46  19 NE10      29.94F HX  90
GREAT FALLS MT CLOUDY    94  50  22 NW15      30.01F HX  91
CHEYENNE WY    MOSUNNY   82  44  26 N12G17    30.26F
SCOTTSBLUFF NE MOSUNNY   92  53  26 VRB5      30.08F
OMAHA NE       CLOUDY    85  61  44 NW8       29.90S
DES MOINES IA  CLOUDY    81  62  52 NW12      29.86S
DAVENPORT IA   MOSUNNY   78  66  66 N6        29.80F
CHICAGO IL     PTSUNNY   70  65  84 S5        29.78F
EAU CLAIRE WI  LGT RAIN  61  58  90 SE5       29.78F
LA CROSSE WI   TSTM      68  63  84 N16G22    29.81S
$$

  *****  SOME NATIONAL WEATHER *****

CITY           SKY/WX    TMP DP  RH WIND       PRES   REMARKS
LA GUARDIA NY  MOSUNNY   77  53  43 W9        29.91R
RALEIGH NC     MOSUNNY   84  61  45 SE6       29.93S
ATLANTA GA     MOSUNNY   84  61  45 SW8       29.98S
NEW ORLEANS LA PTSUNNY   87  71  58 NE6       30.00R HX  93
OKLAHOMA CITY  PTSUNNY   88  69  53 S8        29.93S HX  92
ALBUQUERQUE NM PTSUNNY   92  42  17 N13       30.12F
SALT LAKE CITY NOT AVBL
LOS ANGELES CA PTSUNNY   70  62  76 W14       29.88F
BOISE ID       PTSUNNY   99  53  21 NW12      29.90F HX  96
SEATTLE WA     MOSUNNY   84  59  42 VRB7      30.02S
$$

*** WEATHER ACROSS MANITOBA...SASKATCHEWAN AND ONTARIO ***
                ***ONTARIO***

CITY           SKY/WX    TMP DP  RH WIND       PRES   REMARKS
GERALDTON      LGT RAIN  55  52  88 N14G21    29.81R
THUNDER BAY    LGT RAIN  63  61  94 NE5       29.76R
SIOUX LOOKOUT  PTSUNNY   64  52  63 N12G21    29.89R
TORONTO        PTSUNNY   73  55  53 S10       29.86S
BIG TROUT LK   PTSUNNY   61  39  44 NE9       29.98R
PICKLE LAKE    PTSUNNY   61  46  59 N6        29.91S
DRYDEN         SUNNY     70  55  60 N8G18     29.86R
KENORA         MOSUNNY   73  54  49 N10G17    29.88S
$$
                *** MANITOBA***

CITY           SKY/WX    TMP DP  RH WIND       PRES   REMARKS
BRANDON        PTSUNNY   73  63  68 E9        29.95S
DAUPHIN        SUNNY     73  63  68 E6        29.95S
ISLAND LAKE    PTSUNNY   61  48  63 W7        30.00F
PILOT MOUND      N/A    N/A N/A N/A NE5         N/A
THE PAS        PTSUNNY   70  57  64 NE8       30.00R
THOMPSON       PTSUNNY   64  46  52 VRB2      30.01F
WINNIPEG         N/A     70  64  83 NE7       29.92S
LYNN LAKE      SUNNY     66  55  68 SE7       30.01F
CHURCHILL      MOSUNNY   59  36  41 NE5       30.02F
GILLAM         MOSUNNY   61  36  39 NE3       30.02F
$$
                ***SASKATCHEWAN***

CITY           SKY/WX    TMP DP  RH WIND       PRES   REMARKS
ESTEVAN        CLOUDY    88  59  37 NW14G21   29.94
KINDERSLEY     LGT RAIN  68  54  60 NE13      30.09
LLOYDMINSTER   CLOUDY    75  55  50 W7        30.07
PRINCE ALBERT  SMOKE     72  57  60 NW8       30.02S VSB 1/2
REGINA           N/A     73  50  43 N14G23    30.03R SMOKE
YORKTON        HAZE      72  59  64 NW6       29.97R VSB 1
N. BATTLEFORD  SUNNY     77  54  44 W6        30.07F HAZE
LA RONGE       SMOKE     75  55  50 SE5       29.98F VSB 3/4
SASKATOON      SMOKE     75  48  38 NE6       30.06F VSB 1
SWIFT CURRENT  HAZE      77  45  31 NE16      30.08R VSB 1
$$
NOTE: THESE ARE AUTOMATED STATIONS WITH LIMITED QUALITY CONTROL
      "FAIR" INDICATES FEW OR NO CLOUDS BELOW 12,000 FEET WITH NO
      SIGNIFICANT WEATHER AND/OR OBSTRUCTIONS TO VISIBILITY.
      SKY/WX - SKY CONDITION AND SIGNIFICANT WEATHER.
      TMP - AIR TEMPERATURE.    DP   - DEWPOINT TEMPERATURE.
      RH  - RELATIVE HUMIDITY.  PRES - PRESSURE.
      HX  - HEAT INDEX.         WCI  - WIND CHILL INDEX.
$



USA.gov is the U.S. government's official web portal to all federal, state and local government web resources and services.